Regional Weather Roundup
Issued by NWS Midland/Odessa, TX

Skip options and go directly to product.
Home | Oldest Version | Previous Version | Current Version | All | Text Only | Save Text | Print | Product List | Glossary Off

Skip product version selection by date and time.   

753
ASUS44 KMAF 252310
RWRMAF
MIDLAND AREA WEATHER ROUNDUP
NATIONAL WEATHER SERVICE MIDLAND TX
600 PM CDT SAT APR 25 2015

...IN SOUTHWEST TEXAS AND SOUTHEAST NEW MEXICO...

CITY           SKY/WX    TMP DP  RH WIND       PRES   REMARKS
ALPINE         SUNNY     77  25  14 SW15G22   29.93S
ANDREWS        FAIR      81  22  11 W22G31    29.76S
ARTESIA        SUNNY     81  23  12 SW26      29.74F
BIG SPRING     SUNNY     85  25  11 SW16G24   29.75F
CARLSBAD       SUNNY     82  17   9 W20G33    29.74F
DRYDEN           N/A     91  19   7 W10       29.72F
FORT STOCKTON  SUNNY     83  23  11 W14G23    29.77F
GUAD PASS      SUNNY     71  22  15 SW36G51   29.85F
HOBBS          SUNNY     77  23  13 SW21G31   29.77F
MARFA          SUNNY     75  27  16 SW17      29.92S
MIDLAND AIRPK  SUNNY     83  28  13 W13G20    29.75F
MIDLAND INTL   SUNNY     82  28  14 W20G26    29.75F
ODESSA         SUNNY     83  22  10 W16       29.76F
PECOS          SUNNY     85  28  12 SW17G24   29.75S
PRESIDIO       FAIR      87  21   9 MISG      29.77F
SEMINOLE       SUNNY     81  26  13 W16G25    29.76F
SNYDER         SUNNY     81  36  19 W20       29.72F
WINK           SUNNY     85  16   7 W17G25    29.73F
$$
...OTHER STATIONS IN TEXAS...

CITY           SKY/WX    TMP DP  RH WIND       PRES   REMARKS
ABILENE        SUNNY     85  36  17 W13G23    29.70F
AMARILLO       MOSUNNY   80  26  13 SW10G22   29.67F
AUSTIN         MOSUNNY   88  58  36 S10       29.68S
BROWNSVILLE    PTSUNNY   86  77  74 NE13      29.68F
CORPUS CHRISTI MOSUNNY   79  71  76 E13       29.72F
DALLAS FTW     SUNNY     86  46  24 W15       29.64R
DEL RIO        SUNNY     89  50  26 S5        29.69F
EL PASO        MOSUNNY   80  12   7 SW20G36   29.80F
HOUSTON INT    MOSUNNY   84  68  58 S9        29.70S
LUBBOCK        MOSUNNY   79  29  16 SW16      29.71F
SAN ANGELO     SUNNY     88  30  12 W16G30    29.72F
SAN ANTONIO    MOSUNNY   89  55  31 SW10      29.71F
WACO           SUNNY     86  48  26 W10       29.68R
WICHITA FALLS  NOT AVBL
$$
...OTHER LOCATIONS IN NEW MEXICO...

CITY           SKY/WX    TMP DP  RH WIND       PRES   REMARKS
ALAMAGORDO     MOSUNNY   77  19  11 S17G23    29.80F
ALBUQUERQUE    PTSUNNY   69  24  18 NW12G22   29.79F
CANNON AFB     SUNNY     75  27  16 W17G32    29.74S
CLOVIS         SUNNY     75  28  17 SW17G29   29.73S
HOLLOMAN AFB   MOSUNNY   78  18  10 SW18      29.78F
ROSWELL        SUNNY     80  25  13 W16G23    29.71F
RUIDOSO        SUNNY     63  23  22 W13G21    29.90S
SANTA FE       MOSUNNY   63  26  24 W12G20    29.84F
TRUTH OR CONSE MOSUNNY   74  20  13 W17G26    29.78F
TUCUMCARI      SUNNY     76  25  15 W23G32    29.68S
$$

USA.gov is the U.S. government's official web portal to all federal, state and local government web resources and services.